User: anonymous   Login
Location: Vancouver
(49.2500°N, 123.1330°W)
Time: 06:05:42
(UTC-08:00)
Language:

AO-27 - Orbit

View from above orbital plane
View from above orbital plane
View from above satellite
View from above satellite

Ground track
Ground track

The orbit data is extracted from the following two-line orbital elements,

1 22825U 93061C   16342.89385298  .00000029  00000-0  28834-4 0  9996
2 22825  98.7848 300.4220 0008607 163.2721 196.8747 14.29979145210061
Epoch (UTC): 07 December 2016 21:27:08
Eccentricity: 0.0008607
inclination: 98.7848°
perigee height: 785 km
apogee height: 798 km
right ascension of ascending node: 300.4220°
argument of perigee: 163.2721°
revolutions per day: 14.29979145
mean anomaly at epoch: 196.8747°
orbit number at epoch: 21006

The dashed part of the orbit path shows where the satellite is in the earth's shadow,  

DLR